Wetbulb
28.00 29.00 28.81 28.49 29.35 30.23 31.36 30.72 31.59 36.69 37.71 38.01 37.97 38.01 38.27 38.64 39.21 39.73 40.13 40.72 41.30 42.29 43.04 43.68 44.38 44.90 45.74
26.81 27.03 27.09 28.61 29.09 29.66 31.42 32.54 31.01 34.31 35.90 36.31 36.88 37.40 37.63 37.75 38.00 38.49 39.12 39.51 39.60 40.18 40.93 41.72 42.55 43.45 44.23
24.51 27.61 28.13 29.59 29.09 28.20 27.25 27.27 28.84 32.54 34.60 35.06 35.70 36.33 36.72 37.26 37.53 37.71 37.73 38.01 38.18 38.66 39.11 39.80 40.81 41.77 42.75
26.54 27.22 28.06 26.67 25.81 23.52 23.30 25.92 25.75 28.72 31.53 33.01 34.55 34.85 35.43 35.72 35.46 35.20 35.39 35.76 36.55 37.14 37.56 37.85 38.33 39.44 40.83
26.33 24.34 23.12 22.86 21.99 23.84 23.49 24.85 26.86 27.62 26.67 27.57 27.89 27.79 28.47 31.98 32.30 33.41 33.65 34.37 35.33 36.14 36.94 37.34 37.47 38.26 39.19
23.73 22.18 21.96 22.32 23.95 24.28 25.37 22.91 21.35 27.76 25.55 25.78 27.50 26.15 27.09 27.50 31.75 33.14 34.10 34.96 35.62 36.21 36.69 37.27 37.74 38.05 38.52
22.82 22.12 22.26 24.36 27.02 24.63 24.22 24.14 23.36 25.94 25.65 22.62 25.48 23.83 26.37 27.55 31.83 32.75 33.80 34.51 35.10 35.66 36.24 36.71 37.15 37.77 37.79
25.73 26.76 28.89 27.88 26.90 26.51 26.12 25.98 25.55 25.19 25.62 19.95 23.82 22.54 25.23 26.56 31.43 32.74 33.57 34.19 34.66 35.21 35.86 36.36 36.66 37.04 37.59
32.58 31.73 31.08 31.24 30.19 27.10 22.96 21.35 19.56 21.00 23.83 21.90 22.11 22.50 23.92 24.94 26.96 31.85 33.06 33.97 34.57 35.23 35.95 36.26 36.46 37.05 36.68
23.86 24.54 26.22 25.72 29.50 25.15 23.62 19.70 19.26 18.37 23.09 21.88 21.92 23.35 20.81 25.07 26.38 27.69 27.14 31.74 33.37 34.38 35.28 36.08 36.32 33.11 32.33
21.78 22.40 23.40 23.56 23.61 23.61 24.12 22.42 19.71 19.28 23.54 24.69 22.59 22.12 22.38 21.99 25.44 27.65 28.44 28.53 28.83 29.56 32.83 34.35 35.53 35.45 32.17
20.99 21.30 21.10 20.95 21.69 22.34 22.89 23.05 23.59 22.79 24.21 24.09 22.54 23.22 22.43 21.74 22.09 26.06 27.75 29.04 29.09 28.26 28.86 31.58 34.22 34.90 35.74
20.49 19.89 20.25 20.88 21.08 20.86 21.57 22.23 22.41 23.08 25.59 25.45 25.80 25.48 25.55 24.50 23.45 24.51 26.48 27.57 28.95 28.53 29.19 28.97 28.07 28.19 28.49
19.67 20.09 20.49 19.65 19.25 19.82 19.47 20.29 21.04 20.76 25.86 27.94 28.52 28.58 25.66 25.54 25.67 24.93 26.97 25.97 31.45 33.03 32.44 32.77 29.77 29.69 29.02
19.48 19.01 19.01 18.90 18.36 19.84 19.78 20.28 18.84 20.44 21.93 26.06 29.30 28.91 28.34 26.95 25.63 26.46 28.79 30.07 31.96 32.19 32.24 31.17 29.08 29.15 29.33
18.77 18.43 17.59 17.49 18.60 19.65 19.23 18.68 18.91 20.70 21.15 25.91 25.80 25.79 26.29 27.52 31.27 29.03 30.42 30.44 31.80 32.49 32.59 31.21 31.16 29.74 30.72
17.68 17.51 19.14 18.61 18.57 17.81 18.22 18.88 19.03 20.73 24.19 25.04 25.01 24.55 21.89 21.55 27.46 33.66 29.70 30.99 31.86 32.08 32.29 31.87 31.67 32.29 31.38
MSLP
1012.99 1012.09 1011.42 1010.86 1010.35 1009.97 1009.38 1008.61 1007.66 1006.81 1005.97 1005.11 1004.13 1003.34 1002.52 1001.83 1001.25 1000.78 1000.34 999.85 999.39 998.98 998.67 998.37 997.95 997.76 997.48
1012.44 1011.37 1010.86 1009.96 1009.44 1009.04 1008.46 1007.58 1006.76 1005.94 1005.09 1003.94 1003.13 1002.26 1001.51 1000.86 1000.28 999.72 999.16 998.62 998.26 997.93 997.51 997.28 996.95 996.60 996.25
1011.93 1011.14 1009.83 1009.48 1008.78 1008.18 1007.50 1006.53 1005.82 1004.87 1003.70 1003.23 1002.37 1001.27 1000.43 999.63 998.87 998.27 997.78 997.35 996.90 996.45 996.10 995.96 995.73 995.44 995.24
1011.21 1010.32 1009.76 1008.94 1008.31 1007.39 1006.27 1005.57 1004.81 1003.76 1002.78 1002.36 1001.07 1000.24 999.39 998.60 997.82 997.11 996.50 996.00 995.47 995.04 994.70 994.56 994.36 994.12 994.05
1010.81 1009.95 1009.19 1008.25 1007.60 1006.78 1005.87 1004.53 1003.79 1002.85 1001.55 1001.02 999.99 999.35 998.52 997.61 996.89 996.02 995.47 994.88 994.24 993.70 993.21 993.01 992.93 992.91 992.80
1010.38 1009.56 1008.59 1007.90 1006.84 1006.28 1005.32 1004.31 1001.88 1001.60 1000.77 999.86 999.36 997.93 997.25 996.46 995.57 994.75 993.77 992.96 992.35 991.93 991.56 991.41 991.21 991.14 991.31
1009.87 1009.17 1008.08 1007.24 1006.39 1005.36 1004.71 1003.86 1002.57 1001.20 1000.53 998.68 998.15 996.88 996.04 995.11 994.00 993.11 992.24 991.43 990.80 990.31 989.89 989.66 989.50 989.51 989.40
1009.11 1008.20 1007.46 1006.54 1005.84 1004.99 1004.03 1002.95 1001.84 1000.70 1000.10 998.34 997.10 995.83 994.83 993.77 992.57 991.59 990.75 990.01 989.23 988.69 988.27 987.83 987.66 987.61 987.67
1008.23 1007.54 1006.74 1005.94 1005.29 1004.34 1003.55 1002.70 1001.02 999.89 998.79 998.07 996.50 994.98 993.95 991.97 990.97 990.18 989.38 988.48 987.72 987.00 986.36 985.89 985.80 985.93 986.05
1007.59 1006.95 1006.25 1005.40 1004.70 1004.36 1003.53 1002.52 1001.33 999.43 997.65 997.61 996.13 995.20 992.46 990.52 989.93 989.05 988.11 987.10 986.34 985.51 984.89 984.45 984.11 984.19 984.42
1007.33 1006.45 1005.62 1004.83 1004.15 1003.70 1003.20 1002.52 1001.06 999.97 997.90 997.46 995.79 994.88 994.12 991.19 988.80 987.56 986.93 985.71 985.03 984.18 983.43 982.90 982.66 982.64 982.76
1007.06 1006.06 1005.31 1004.54 1003.68 1003.07 1002.28 1001.51 1000.58 999.55 997.64 997.03 995.65 994.34 992.74 990.91 989.02 986.34 985.74 984.71 983.88 982.85 981.99 981.25 981.04 981.12 981.22
1006.79 1005.92 1005.22 1004.22 1003.20 1002.38 1001.42 1000.46 999.29 998.00 996.81 995.75 994.71 993.14 992.04 990.36 988.86 986.86 985.15 983.47 982.60 981.55 980.42 979.59 979.45 979.83 980.13
1006.62 1005.75 1004.81 1003.78 1002.81 1002.02 1000.98 999.80 998.51 996.51 995.49 994.51 993.47 992.34 990.88 989.51 988.41 986.51 985.15 983.88 981.70 980.41 979.23 978.29 978.35 978.95 979.40
1006.32 1005.43 1004.50 1003.62 1002.38 1001.53 1000.63 999.54 998.56 996.82 994.67 993.19 992.17 991.44 990.20 988.82 987.52 986.25 984.64 983.16 981.65 980.25 979.07 978.32 978.38 978.62 979.01
1005.94 1005.20 1004.33 1003.37 1002.21 1000.94 1000.28 999.45 998.21 996.59 995.09 993.47 992.12 990.54 989.14 987.60 987.08 985.93 984.52 983.17 981.63 980.26 979.33 978.53 977.98 978.22 978.56
1005.62 1004.70 1003.81 1002.88 1001.89 1000.76 999.85 998.95 997.65 996.42 994.94 993.80 992.63 991.67 990.34 989.01 987.09 985.94 985.12 983.58 982.02 980.70 979.80 978.94 978.18 977.66 978.17
Wind_Speed
13 15 16 15 13 12 13 13 13 29 33 34 36 36 36 36 37 37 37 37 35 35 35 35 36 37 37
15 15 16 17 15 14 10 11 14 22 32 34 35 35 35 35 35 35 35 35 35 35 35 35 35 36 36
15 13 14 12 11 13 13 13 12 25 31 31 32 33 34 34 34 34 34 35 35 36 35 35 36 36 36
13 12 8 13 11 13 13 12 12 13 20 24 31 32 34 34 35 34 34 33 34 34 33 33 34 35 34
8 13 13 13 13 12 14 14 10 15 13 10 13 12 15 26 28 33 32 32 32 32 33 33 32 33 34
12 14 15 14 14 12 12 15 17 8 8 14 12 14 13 13 27 32 33 34 34 34 34 34 33 33 33
15 14 17 16 13 16 14 13 14 14 15 16 13 15 13 14 31 33 34 34 34 34 34 34 33 33 33
13 15 13 16 15 14 16 16 13 13 12 16 14 15 13 13 31 34 33 32 32 31 32 32 32 32 33
22 26 28 27 23 12 11 12 14 14 13 12 9 15 14 16 14 26 27 29 31 31 32 32 32 31 24
12 15 18 17 24 11 10 12 13 13 7 8 12 10 10 7 8 13 11 24 29 30 31 32 31 15 13
11 11 11 11 10 9 11 10 13 12 18 13 9 12 9 13 12 11 12 14 12 16 27 29 29 25 11
11 11 11 11 11 12 14 13 12 16 19 16 11 13 13 15 16 11 11 12 11 12 12 19 26 26 28
10 11 10 12 14 12 13 14 15 15 13 15 12 14 12 13 13 14 18 11 12 11 11 11 10 8 8
10 11 10 10 12 10 11 11 12 13 12 12 13 11 12 11 11 14 13 10 11 11 10 6 4 6 6
10 11 11 11 12 10 10 10 10 12 15 13 13 12 12 14 11 10 11 11 11 11 9 3 1 5 6
10 10 11 11 11 12 9 9 10 12 12 12 13 13 11 5 5 10 9 11 12 11 8 5 2 4 5
10 10 10 10 14 11 10 9 11 11 10 10 10 9 11 11 6 15 13 12 11 9 9 8 6 2 5
Wind_Direction
293 302 299 293 292 288 282 281 279 282 287 292 293 292 290 290 288 287 285 282 280 275 273 272 270 267 265
293 302 297 298 297 298 286 276 282 284 287 287 290 294 294 292 291 289 287 284 281 278 274 273 271 270 265
290 289 291 305 300 293 291 287 282 285 285 291 290 290 289 288 287 285 283 282 279 275 272 267 267 269 265
280 290 306 303 300 303 297 292 292 285 285 286 284 286 289 289 288 286 285 284 281 277 271 268 269 265 260
317 305 308 310 303 302 295 296 291 288 285 286 284 282 280 282 279 282 282 279 274 271 268 266 264 260 262
304 302 299 298 299 299 300 304 306 279 293 292 287 286 280 278 279 281 279 277 275 271 268 266 264 262 256
300 295 293 297 300 304 299 295 294 297 300 293 292 284 283 279 282 281 281 280 278 275 272 267 263 256 255
293 292 290 303 300 303 301 296 290 290 288 289 296 286 289 280 282 283 283 282 281 277 273 268 263 258 254
302 309 308 309 309 307 303 304 301 300 299 288 290 293 290 282 274 277 280 281 282 280 275 266 260 258 258
316 308 307 300 307 305 301 299 300 305 295 303 300 307 307 262 281 287 275 278 280 278 274 270 265 250 242
309 306 304 305 306 302 297 292 293 282 287 304 300 297 279 300 297 288 286 282 279 274 275 269 263 254 235
308 308 311 308 306 304 298 288 276 276 288 287 279 289 289 291 294 295 295 288 278 272 265 257 256 248 245
308 307 305 302 301 302 299 294 290 285 281 283 278 286 281 289 290 297 303 306 292 275 268 253 234 217 230
304 301 302 305 304 307 304 309 306 307 303 293 293 292 297 289 290 291 301 305 305 310 307 295 196 199 203
304 306 306 306 304 307 303 308 303 312 316 320 321 309 293 280 290 292 311 320 317 320 328 321 150 180 190
305 302 301 300 303 307 308 303 306 311 310 318 324 328 330 299 246 318 332 331 325 325 332 318 312 173 187
300 297 297 301 308 305 308 306 307 308 310 317 321 330 329 330 293 333 340 341 338 340 340 346 340 136 174